Regional Weather Roundup
Issued by NWS

Home | Current Version | Previous Version | Text Only | Print | Product List | Glossary On
Versions: 1 2 3 4 5 6 7 8 9 10 11 12 13 14 15 16 17 18 19 20 21 22 23 24 25 26 27 28 29 30 31 32 33 34 35 36 37 38 39 40 41 42 43 44 45 46 47 48 49 50
000
ASUS46 KPQR 061410
RWROR

OREGON REGIONAL WEATHER ROUNDUP
NATIONAL WEATHER SERVICE PORTLAND OR
600 AM PST SAT FEB 06 2016

NOTE: "FAIR" INDICATES FEW OR NO CLOUDS BELOW 12,000 FEET WITH
NO SIGNIFICANT WEATHER AND/OR OBSTRUCTIONS TO VISIBILITY.

ORZ001>013-061500-
NORTHWEST OREGON


CITY           SKY/WX    TMP DP  RH WIND       PRES   REMARKS
ASTORIA        PTCLDY    47  39  74 SW6       30.43R
NEWPORT        PTCLDY    39  39 100 E3        30.43R
PORTLAND       MOCLDY    44  40  85 CALM      30.46S
VANCOUVER WA   MOCLDY    40  39  97 CALM      30.46R
SCAPPOOSE      MOCLDY    35  34  96 W5        30.46R WCI  31
HILLSBORO      MOCLDY    36  34  92 CALM      30.45R FOG
AURORA         FOG       39  39 100 CALM      30.47R VSB 1
MCMINNVILLE    PTCLDY    36  36 100 CALM      30.46S FOG
SALEM          FOG       41  39  93 S6        30.45S VSB 1/4
CORVALLIS      MOCLDY    37  36  93 W5        30.46S VSB 1   WCI  34
EUGENE         CLOUDY    41  40  96 NW5       30.45R
$$

ORZ021-028-061500-
SOUTHWEST OREGON


CITY           SKY/WX    TMP DP  RH WIND       PRES   REMARKS
NORTH BEND     CLOUDY    48  46  93 NE3       30.44S
BROOKINGS      LGT RAIN  50  49  96 E3        30.42R
ROSEBURG       CLOUDY    48  45  89 CALM      30.42S
SEXTON SUMMIT  FOG       41  41 100 S10       30.37R VSB 1/4
MEDFORD        CLOUDY    45  40  82 CALM      30.41R
$$

ORZ014>016-041-061500-
COLUMBIA GORGE


CITY           SKY/WX    TMP DP  RH WIND       PRES   REMARKS
TROUTDALE      MOCLDY    42  39  89 CALM      30.46S
THE DALLES     PTCLDY    46  33  60 W5        30.39R
$$

ORZ029>031-041-044-049-050-061>064-502-503-505>511-061500-
EASTERN OREGON


CITY           SKY/WX    TMP DP  RH WIND       PRES   REMARKS
REDMOND        CLEAR     31  29  92 NE7       30.33R WCI  24
BEND           PTCLDY    43  34  70 SW16      30.33S
PRINEVILLE     CLEAR     34  32  93 CALM      30.34R
KLAMATH FALLS  MOCLDY    32  27  81 SE6       30.41R WCI  26
LAKEVIEW       CLOUDY    30  25  80 N6        30.44R WCI  24
HERMISTON      CLOUDY    41  33  73 S9        30.36S
PENDLETON      CLOUDY    42  31  64 W15       30.36S
JOHN DAY       MOCLDY    43  31  62 SW9       30.34R
MEACHAM        CLOUDY    35  30  82 CALM      30.32S
LA GRANDE      CLOUDY    37  27  65 S17G24    30.33S WCI  28
BAKER CITY     CLOUDY    28  26  92 SW5       30.36R WCI  23
BURNS          CLOUDY    26  22  84 CALM      30.38S
ROME             N/A     35  27  72 SE15      30.37F WCI  25
ONTARIO        CLOUDY    31  28  89 N3        30.47R FOG
$$



USA.gov is the U.S. government's official web portal to all federal, state and local government web resources and services.